SAOCOM 1B (46265 NORAD) Tracking and Keplerian Element Data

This shows tracking and keplerian element data for the satellite.

Feedback or suggestion? Click here.




ElementValue
Catalog46265
NameSAOCOM 1B
Epoch Orbit1398
Epoch Day338.15874529
Epoch Year2020
RAAN160.9834
Inclination97.8845
Eccentricity0.0001631
Argument of Perigee87.4117
Mean Anonmoly272.7949
Mean Motion14.82142957
Decay Rate-0.00011405
L11 46265U 20059A 20338.15874529 -.00011405 00000-0 -14290-2 0 9997
L22 46265 97.8845 160.9834 0001631 87.4117 272.7949 14.82142957 13980

Live tracking and technical data element details for SAOCOM 1B (NORAD 46265). SAOCOM 1B can be tracked NOW for your location showing map with azimuth and elevation plus other details from your city location.

Track the satellite on the map from your city or location and see movement details for azimuth, elevation, latitude, longitude, range, height, and movement on the map or in text.







IsCatalogInMostPopularTable: catalog: 46265, numindb: 16
Update: records affected: 1



GetName: 46265 SAOCOM 1B

Hit Count: updated at: Sat, 05 Dec 2020 05:53:45 GMT